Home   Weather   Dublin   Past weeks

Flag for Ireland Past Weather in Dublin, Ireland — Yesterday and Last 2 Weeks

54 °F

Broken clouds.

Feels Like: 50 °F
Forecast: 50 / 54 °F
Wind: 13 mph from Southeast

Location: Dublin Airport

Current Time: Oct 22, 2016 at 12:58:52 PM

Latest Report: Oct 22, 2016 at 12:30 PM

Visibility: N/A

Pressure: 30.07 "Hg

Humidity: 72%

Dew Point: 45 °F

Location of DublinLocation

Past Weather in Dublin — Graph


Dublin Temperature Yesterday

Maximum temperature yesterday: 55 °F (at 12:00 PM)
Minimum temperature yesterday: 43 °F (at 1:00 AM)
Average temperature yesterday: 49 °F

High & Low Weather Summary for the Past Weeks

High59 °F (Oct 8, 1:30 PM)100% (Oct 8, 7:30 AM)30.45 "Hg (Oct 8, 7:30 AM)
Low37 °F (Oct 20, 7:00 AM)55% (Oct 15, 2:30 PM)29.47 "Hg (Oct 16, 7:00 AM)
Average50 °F84%30.08 "Hg
* Reported Oct 7 11:00 AM — Oct 22 11:30 AM, Dublin, Weather by CustomWeather, © 2016

Note: Actual official high and low records may vary slightly from our data, if they occured in-between our weather recording intervals... More about our weather records


Dublin Weather History for the Previous 24 Hours

Scroll right to see more
Time TempWeatherWind HumidityBarometerVisibility
11:30 AM
Sat, Oct 22
54 °FBroken clouds.10 mph72%30.07 "HgN/A
11:00 AM52 °FBroken clouds.9 mph82%30.07 "HgN/A
10:30 AM52 °FBroken clouds.7 mph82%30.07 "HgN/A
10:00 AM50 °FBroken clouds.7 mph88%30.07 "HgN/A
9:30 AM48 °FSprinkles. Broken clouds.6 mph94%30.07 "HgN/A
9:00 AM46 °FBroken clouds.5 mph93%30.07 "HgN/A
8:30 AM46 °FBroken clouds.5 mph93%30.07 "HgN/A
8:00 AM46 °FPartly cloudy.6 mph93%30.07 "HgN/A
7:30 AM48 °FPartly cloudy.7 mph87%30.07 "HgN/A
7:00 AM46 °FPassing clouds.9 mph93%30.04 "HgN/A
6:30 AM46 °FPassing clouds.8 mph93%30.07 "HgN/A
6:00 AM46 °FPassing clouds.6 mph93%30.07 "HgN/A
5:30 AM46 °FPassing clouds.8 mph93%30.07 "HgN/A
5:00 AM46 °FPassing clouds.6 mph93%30.07 "HgN/A
4:30 AM46 °FPassing clouds.5 mph93%30.07 "HgN/A
4:00 AM46 °FPassing clouds.5 mph93%30.07 "HgN/A
3:30 AM46 °FPartly cloudy.5 mph93%30.07 "HgN/A
3:00 AM48 °FPassing clouds.3 mph87%30.07 "HgN/A
2:30 AM48 °FPassing clouds.2 mph87%30.07 "HgN/A
2:00 AM50 °FPassing clouds.3 mph82%30.07 "HgN/A
1:00 AM50 °FPartly cloudy.5 mph82%30.09 "HgN/A
12:30 AM50 °FPartly cloudy.6 mph82%30.09 "HgN/A
12:00 AM50 °FPartly cloudy.5 mph82%30.09 "HgN/A
11:30 PM
Fri, Oct 21
50 °FPartly cloudy.6 mph82%30.09 "HgN/A
11:00 PM52 °FPartly cloudy.5 mph82%30.09 "HgN/A
10:30 PM52 °FPartly cloudy.6 mph82%30.09 "HgN/A
10:00 PM50 °FPartly cloudy.6 mph88%30.09 "HgN/A
9:30 PM50 °FPassing clouds.1 mph88%30.12 "HgN/A
9:00 PM50 °FPassing clouds.No wind88%30.12 "HgN/A
8:30 PM50 °FPassing clouds.1 mph88%30.12 "HgN/A
8:00 PM50 °FPartly cloudy.2 mph88%30.12 "HgN/A
7:30 PM50 °FPartly cloudy.1 mph88%30.12 "HgN/A
7:00 PM50 °FPartly cloudy.No wind88%30.12 "HgN/A
6:30 PM52 °FPartly cloudy.2 mph82%30.12 "HgN/A
6:00 PM52 °FBroken clouds.2 mph82%30.12 "HgN/A
5:30 PM54 °FBroken clouds.5 mph77%30.12 "HgN/A
5:00 PM54 °FBroken clouds.8 mph77%30.12 "HgN/A
4:30 PM54 °FBroken clouds.9 mph77%30.12 "HgN/A
4:00 PM55 °FBroken clouds.9 mph72%30.12 "HgN/A
3:30 PM55 °FBroken clouds.7 mph72%30.12 "HgN/A
3:00 PM55 °FBroken clouds.7 mph77%30.12 "HgN/A
2:30 PM55 °FBroken clouds.9 mph72%30.12 "HgN/A
2:00 PM55 °FBroken clouds.8 mph72%30.12 "HgN/A
1:30 PM54 °FBroken clouds.8 mph77%30.15 "HgN/A
1:00 PM54 °FBroken clouds.9 mph72%30.15 "HgN/A
12:30 PM55 °FPartly sunny.10 mph72%30.15 "HgN/A
12:00 PM55 °FPartly sunny.9 mph67%30.15 "HgN/A
Weather by CustomWeather, © 2016

See weather overviewHow to use our weather pages